Weather History for KESN - January, 2014

Change the Weather History Date:

Monday, January 6, 2014

  Actual Average Record
Temperature  
Mean Temperature 38 °F -  
Max Temperature 60 °F 40 °F 70 °F (1950)
Min Temperature 16 °F 23 °F 12 °F (1958)
Degree Days  
Heating Degree Days 27    
Moisture  
Dew Point 38 °F    
Average Humidity 78    
Maximum Humidity 100    
Minimum Humidity 43    
Precipitation  
Precipitation 0.00 in - - ()
Sea Level Pressure  
Sea Level Pressure 29.78 in    
Wind  
Wind Speed 17 mph (WSW)    
Max Wind Speed 30 mph    
Max Gust Speed 36 mph    
Visibility 10 miles    
Events      
Averages and records for this station are not official NWS values.
T = Trace of Precipitation, MM = Missing Value Source: NWS Daily Summary

Daily Weather History Graph

Daily Weather History Graph

Search for Another Location

Airport or City:

Trip Planner

Search our weather history database for the weather conditions in past years. The results will help you decide how hot, cold, wet, or windy it might be!

Date:

Astronomy

Jan. 06, 2014 Rise Set
Actual Time 7:22 AM EST 4:57 PM EST
Civil Twilight 6:53 AM EST 5:27 PM EST
Nautical Twilight 6:20 AM EST 6:00 PM EST
Astronomical Twilight 5:47 AM EST 6:32 PM EST
Moon 10:40 AM EST (1/6) 11:24 PM EST (1/6)
Length of Visible Light 10h 33m
Length of Day
9h 34m
Waxing Crescent, 34% of the Moon is Illuminated
Jan 6
Waxing Crescent
Jan 7
First Quarter
Jan 15
Full
Jan 24
Last Quarter
Jan 30
New

Hourly Weather History & Observations

Time (EST) Temp. Windchill Dew Point Humidity Pressure Visibility Wind Dir Wind Speed Gust Speed Precip Events Conditions
12:05 AM 59.0 °F - 59.0 °F 100% 29.76 in 7.0 mi SSW 17.3 mph 26.5 mph N/A   Overcast
12:25 AM 59.2 °F - 59.2 °F 100% 29.75 in 7.0 mi SSW 18.4 mph 23.0 mph N/A   Overcast
12:45 AM 59.5 °F - 59.5 °F 100% 29.74 in 10.0 mi SSW 16.1 mph 24.2 mph N/A   Overcast
1:05 AM 59.4 °F - 59.4 °F 100% 29.73 in 10.0 mi SSW 15.0 mph 21.9 mph N/A   Overcast
1:25 AM 59.5 °F - 59.5 °F 100% 29.71 in 10.0 mi South 17.3 mph 21.9 mph N/A   Overcast
1:45 AM 59.9 °F - 59.9 °F 100% 29.71 in 10.0 mi SW 15.0 mph - N/A   Overcast
2:05 AM 59.9 °F - 59.9 °F 100% 29.68 in 10.0 mi South 15.0 mph 20.7 mph N/A   Overcast
2:26 AM 60.1 °F - 60.1 °F 100% 29.67 in 10.0 mi South 15.0 mph - N/A   Overcast
2:46 AM 60.8 °F - 60.8 °F 100% 29.67 in 10.0 mi SSW 13.8 mph 19.6 mph N/A   Overcast
3:06 AM 60.8 °F - 60.8 °F 100% 29.65 in 10.0 mi SSW 15.0 mph 20.7 mph N/A   Overcast
3:26 AM 60.4 °F - 60.4 °F 100% 29.63 in 10.0 mi South 19.6 mph 24.2 mph N/A   Overcast
3:46 AM 60.6 °F - 60.6 °F 100% 29.61 in 7.0 mi SSW 15.0 mph 23.0 mph N/A   Overcast
4:06 AM 60.8 °F - 60.8 °F 100% 29.61 in 10.0 mi SW 13.8 mph 20.7 mph N/A   Overcast
4:26 AM 60.8 °F - 60.8 °F 100% 29.58 in 10.0 mi SSW 16.1 mph 23.0 mph N/A   Overcast
4:46 AM 60.8 °F - 60.8 °F 100% 29.57 in 10.0 mi SSW 15.0 mph 21.9 mph N/A   Overcast
5:06 AM 60.8 °F - 60.8 °F 100% 29.57 in 10.0 mi South 15.0 mph 19.6 mph N/A   Overcast
5:22 AM 60.3 °F - 60.3 °F 100% 29.56 in 7.0 mi SSW 15.0 mph - N/A   Overcast
5:45 AM 60.8 °F - 60.8 °F 100% 29.54 in 5.0 mi South 18.4 mph 24.2 mph N/A   Overcast
3:45 PM 39.2 °F 29.6 °F 24.8 °F 56% - 10.0 mi NW 19.6 mph 26.5 mph N/A   Mostly Cloudy
4:45 PM 35.6 °F 26.6 °F 23.0 °F 60% 29.76 in 10.0 mi NW 13.8 mph 23.0 mph N/A   Scattered Clouds
5:53 PM 35.6 °F 25.5 °F 21.2 °F 56% 29.80 in 10.0 mi NW 17.3 mph 25.3 mph N/A   Mostly Cloudy
6:50 PM 33.8 °F 23.5 °F 19.4 °F 56% 29.81 in 10.0 mi NNW 16.1 mph 23.0 mph N/A   Mostly Cloudy
7:50 PM 30.2 °F 17.4 °F 14.0 °F 51% 29.87 in 10.0 mi NW 20.7 mph 27.6 mph N/A   Scattered Clouds
8:50 PM 24.8 °F 8.7 °F 5.0 °F 43% 29.94 in 10.0 mi NW 26.5 mph 34.5 mph N/A   Scattered Clouds
9:28 PM 23.0 °F 5.4 °F 3.7 °F 44% 29.97 in 10.0 mi NNW 29.9 mph 35.7 mph N/A   Scattered Clouds
9:48 PM 21.6 °F 5.7 °F 5.0 °F 49% 29.98 in 10.0 mi NNW 21.9 mph 33.4 mph N/A   Clear
10:08 PM 20.5 °F 6.4 °F 4.6 °F 50% 30.00 in 10.0 mi NW 16.1 mph 29.9 mph N/A   Clear
10:28 PM 19.4 °F 2.8 °F 3.0 °F 49% 30.01 in 10.0 mi NW 21.9 mph 31.1 mph N/A   Clear
10:48 PM 18.5 °F 3.3 °F 1.8 °F 48% 30.02 in 10.0 mi NW 17.3 mph 31.1 mph N/A   Clear
11:08 PM 17.6 °F 3.2 °F 1.6 °F 50% 30.04 in 10.0 mi NW 15.0 mph 26.5 mph N/A   Clear
11:28 PM 16.9 °F -0.5 °F 0.7 °F 49% 30.06 in 10.0 mi NW 21.9 mph 28.8 mph N/A   Clear
11:48 PM 16.2 °F 0.3 °F 0.1 °F 49% 30.08 in 10.0 mi NW 17.3 mph 26.5 mph N/A   Clear